Hourly Data Report for October 05, 2017

All times are specified in Local Standard Time (LST). Add 1 hour to adjust for Daylight Saving Time where and when it is observed.

QIKIQTARJUAQ A
NUNAVUT

67°32'48.000" N
64°01'54.000" W
5.50 m
2400577
YVM

Download Data

Hourly Data (October 2017)
Hourly Data Report for October 5, 2017
Temp Definition
°C
Dew Point Temp Definition
°C
Rel Hum Definition
%
Wind Dir Definition
10's deg

Wind Spd Definition
km/h
Visibility Definition
km
Stn Press Definition
kPa
Hmdx Definition


Wind Chill Definition


Weather Definition


TIME
00:00 Legend Double Dagger -1.5 -9.1 56 20 15 16.1 100.03   -6 LegendNANA
01:00 Legend Double Dagger -0.8 -8.3 57 18 32 16.1 100.06   -8 LegendNANA
02:00 Legend Double Dagger -1.3 -7.4 63 17 22 16.1 100.14   -7 LegendNANA
03:00 Legend Double Dagger -1.1 -6.5 67 17 18 16.1 100.21   -6 LegendNANA
04:00 Legend Double Dagger -1.0 -6.2 68 16 32 16.1 100.23   -8 LegendNANA
05:00 Legend Double Dagger -1.0 -6.4 67 15 30 16.1 100.26   -8 LegendNANA
06:00 Legend Double Dagger -0.5 -5.2 71 14 32 16.1 100.30   -7 LegendNANA
07:00 Legend Double Dagger -0.5 -5.9 67 15 32 16.1 100.32   -7 LegendNANA
08:00 Legend Double Dagger 0.7 -7.3 55 17 24 16.1 100.32     LegendNANA
09:00 Legend Double Dagger 1.4 -6.9 54 16 21 16.1 100.32     LegendNANA
10:00 Legend Double Dagger 0.3 -4.9 68 20 24 16.1 100.32     LegendNANA
11:00 Legend Double Dagger -0.3 -4.9 71 20 21 16.1 100.29   -6 LegendNANA
12:00 Legend Double Dagger -0.4 -4.5 74 19 13 16.1 100.26   -5 LegendNANA
13:00 Legend Double Dagger 0.1 -4.7 70 27 5 16.1 100.23     LegendNANA
14:00 Legend Double Dagger 0.0 -5.1 69 LegendMM 4 16.1 100.23   -1 LegendNANA
15:00 Legend Double Dagger 0.0 -5.0 69   0 16.1 100.21     LegendNANA
16:00 Legend Double Dagger -2.7 -4.9 85   0 16.1 100.21     LegendNANA
17:00 Legend Double Dagger -3.0 -4.8 87   0 16.1 100.20     LegendNANA
18:00 Legend Double Dagger -1.7 -4.9 79 LegendMM 4 16.1 100.15   -3 LegendNANA
19:00 Legend Double Dagger -1.8 -4.5 82   0 16.1 100.12     LegendNANA
20:00 Legend Double Dagger -1.8 -5.1 78 LegendMM 4 16.1 100.09   -3 LegendNANA
21:00 Legend Double Dagger -3.4 -5.7 84   0 16.1 100.10     LegendNANA
22:00 Legend Double Dagger -2.0 -4.1 86   0 16.1 100.08     LegendNANA
23:00 Legend Double Dagger -2.1 -4.4 84 14 5 16.1 100.06   -4 LegendNANA

Notes on Data Quality.

Legend

  • E = Estimated
  • M = Missing
  • NA = Not Available
  • ‡ = Partner data that is not subject to review by the National Climate Archives
Date modified: